Location: Neuvy Saint Sepulchre
(46.5953°N, 1.8122°E)
Time: 10:40:16
(UTC+02:00)

ISS - Pass Details

Date: 24 April 2026
Orbit: 416 x 424 km, 51.6° (Epoch: 13 April)

Event Time Altitude Azimuth Distance (km) Brightness Sun altitude
Exits shadow 05:30:06 23° 252° (WSW) 940 -2.6 -13.0°
Maximum altitude 05:32:03 76° 335° (NNW) 436 -3.7 -12.7°
Drops below altitude 10° 05:35:25 10° 62° (ENE) 1,505 0.6 -12.2°
Sets 05:37:32 0° 64° (ENE) 2,373 2.1 -11.9°
